Wind_Speed
28 30 29 27 26 26 24 21 21 21 21 20 17 13 8 5 4 3 2 1 1 4 5 4 6 6 6 6 6 5 3 3 3 2 2 3 3 3 3 3 3 3 3 3 4 4 3 3 4 4 5 5 4 5 7 8 9 11 9 6 5 4 3 3 3 3 2 2 2 1 2 1 1 3 1 0 1 3 3 4 4 4 4 4 4
28 30 30 29 28 27 25 23 23 23 22 21 16 11 8 6 6 5 4 4 2 1 3 4 5 5 5 5 5 4 2 1 1 1 2 2 2 2 3 3 3 3 3 3 4 4 4 3 3 3 4 4 4 4 5 5 6 7 7 5 5 5 4 4 5 4 3 4 6 5 3 1 2 4 5 4 4 5 5 6 6 7 7 6 6
29 32 33 32 30 29 27 27 27 25 23 20 16 15 14 11 8 7 7 6 4 2 1 2 4 5 5 5 5 5 4 4 4 4 5 6 6 7 6 6 6 5 4 3 3 4 4 5 6 6 6 7 7 7 6 5 5 7 8 7 7 7 7 7 6 5 5 5 6 6 6 3 3 5 7 7 7 7 8 8 8 9 8 8 9
24 26 26 26 26 28 30 29 28 29 27 24 22 20 19 15 11 10 10 8 7 5 4 4 4 5 6 7 7 6 6 7 7 8 9 9 8 8 7 8 9 9 8 7 6 6 5 6 7 8 8 8 8 8 9 8 7 6 6 7 8 8 8 8 7 7 6 6 6 7 8 7 6 6 7 8 9 9 9 9 8 9 10 9 10
13 14 15 16 16 20 23 24 25 26 25 25 24 21 17 14 13 12 12 10 9 8 7 7 7 8 9 8 7 7 8 9 10 12 11 9 7 7 7 8 9 10 10 9 8 8 8 9 9 9 10 10 9 9 10 9 9 8 7 8 9 8 8 8 8 8 7 7 8 8 9 8 7 8 7 8 9 10 11 12 10 9 10 11 12
7 10 12 12 10 10 13 15 16 16 16 16 16 16 15 14 14 14 14 13 13 11 10 10 11 11 11 9 8 9 9 10 10 11 11 9 7 7 7 8 9 10 11 10 9 9 10 10 9 8 10 10 10 12 12 11 11 9 6 7 8 8 8 8 7 7 8 8 8 8 9 9 8 9 10 10 11 12 13 15 14 13 15 17 18
7 10 10 9 8 8 10 11 11 11 12 13 14 15 15 14 14 15 15 15 15 14 13 13 14 13 11 10 9 9 10 9 9 10 9 8 7 7 8 9 10 11 11 11 10 9 10 11 10 10 9 8 8 10 11 10 10 9 5 6 7 7 7 7 6 7 9 10 8 8 10 11 11 12 13 13 14 14 15 17 17 18 19 21 21
8 9 9 8 7 9 11 12 14 15 14 13 15 17 16 13 12 12 14 15 15 14 13 14 14 13 12 11 11 10 9 9 10 11 10 9 8 8 8 10 11 11 11 11 10 9 10 11 11 11 10 8 8 8 9 9 10 10 7 6 7 7 7 7 8 8 10 11 11 11 12 13 14 14 15 15 15 15 16 17 19 20 21 21 21
7 7 6 5 7 10 12 12 14 15 13 12 15 16 15 13 12 12 13 14 14 14 13 13 13 12 12 12 12 12 11 10 11 12 11 11 11 11 11 12 13 14 13 12 12 11 10 10 11 12 11 10 9 9 9 10 11 11 9 7 8 8 9 10 11 11 11 12 13 14 14 15 15 16 16 16 17 17 17 18 19 20 21 22 23
9 8 6 5 7 9 10 10 11 11 10 11 12 12 13 13 12 12 12 12 12 13 12 13 13 12 12 12 12 12 12 12 12 13 13 13 12 13 14 14 15 15 14 12 12 11 10 10 11 12 11 12 12 11 11 11 11 11 10 9 10 11 12 13 13 13 13 14 15 16 16 16 16 16 16 16 17 18 19 20 21 22 23 24 25
8 7 5 5 8 9 9 11 12 10 9 9 10 9 11 13 13 13 12 11 12 12 11 11 13 14 14 14 14 14 14 13 14 15 16 15 14 13 14 15 15 14 13 12 11 10 10 10 11 12 12 13 14 13 13 12 11 11 11 11 12 13 13 14 14 14 14 15 16 16 16 16 16 16 16 17 19 20 21 22 24 25 26 27 27
7 7 6 6 8 9 9 9 11 11 10 9 9 10 13 15 15 14 14 13 13 12 11 11 13 14 15 16 15 15 16 16 16 17 17 17 16 15 16 16 15 13 12 11 11 11 11 11 12 12 13 13 14 13 12 12 13 13 13 13 14 14 14 14 15 14 15 15 15 16 16 16 17 18 18 19 21 22 24 25 26 27 28 29 30
9 7 6 7 8 8 9 10 11 12 11 9 9 9 11 13 12 12 13 14 14 13 12 12 13 14 14 14 14 15 16 16 17 16 16 17 16 15 15 15 14 13 13 12 12 13 13 13 12 11 12 13 13 14 14 14 15 15 15 14 15 15 15 16 16 16 16 16 16 17 17 18 19 20 21 22 23 24 25 25 26 27 28 29 31
11 10 9 9 8 7 9 11 13 12 10 8 7 7 8 8 9 10 11 13 14 14 13 13 14 14 13 12 11 12 12 13 13 13 14 16 16 15 15 15 14 14 14 13 14 14 13 13 11 11 13 15 15 15 15 16 16 16 16 16 16 16 16 17 17 18 18 17 18 18 19 20 21 22 22 23 24 25 26 26 27 28 29 30 31
8 8 8 9 8 7 8 10 11 11 10 8 8 8 8 8 8 9 10 12 13 13 13 14 15 14 13 11 11 11 11 11 12 12 13 13 14 15 16 16 16 15 14 14 15 15 15 14 13 14 16 16 16 16 17 18 18 18 18 18 18 18 18 18 19 20 19 19 20 21 21 22 23 24 24 25 26 27 28 29 29 30 31 32 33
11 11 9 7 5 6 6 5 6 8 8 8 7 7 7 8 8 8 9 10 11 12 13 14 14 13 12 12 11 11 11 11 11 11 11 12 13 15 17 18 17 16 15 15 16 16 16 15 14 15 17 18 17 17 18 19 19 19 18 18 18 19 20 20 20 21 21 21 22 23 23 24 24 25 26 27 28 29 29 30 31 31 33 34 34
14 13 13 12 10 10 8 6 6 6 6 6 6 6 7 8 9 9 10 10 11 12 13 13 13 13 13 12 12 11 11 10 10 10 10 11 14 16 19 19 18 18 17 17 17 18 18 17 15 16 18 18 18 18 18 19 20 21 20 19 19 20 20 20 21 21 22 23 23 23 24 24 25 25 26 28 29 29 30 30 31 32 33 35 35
15 15 15 14 14 13 12 11 9 7 6 6 7 7 8 8 9 9 10 12 13 14 14 14 13 12 12 12 12 11 11 11 12 12 13 14 16 18 20 20 20 19 19 19 20 20 20 19 18 18 18 18 18 19 20 20 21 22 22 22 21 21 20 21 21 22 23 24 24 24 24 24 24 25 26 28 30 30 31 31 31 32 34 36 37
14 13 12 12 11 11 11 10 9 8 8 8 8 9 10 11 11 11 12 13 13 15 16 16 15 14 14 13 13 13 13 13 13 15 16 17 18 19 21 22 21 21 21 22 23 23 22 21 20 20 20 20 21 21 20 20 21 22 23 23 23 23 22 21 22 23 24 25 25 24 24 25 25 26 27 29 31 31 31 32 32 33 35 37 38
11 11 10 10 10 9 9 9 9 10 10 11 12 12 14 15 16 16 16 15 15 17 18 19 18 17 16 15 14 15 15 15 15 15 17 18 20 21 23 23 23 24 25 25 25 25 24 23 22 21 21 21 21 21 21 21 21 22 23 24 25 24 23 22 22 22 23 24 24 24 24 25 26 27 29 30 30 30 31 32 33 34 36 38 38
16 15 13 12 12 13 13 14 14 14 15 16 16 17 18 19 20 19 19 19 19 19 20 20 21 21 21 19 17 17 16 16 15 15 16 18 20 22 23 24 25 26 27 28 27 26 25 24 23 22 22 22 22 22 22 22 22 23 23 24 25 25 25 23 22 22 23 24 24 24 25 26 27 28 29 29 30 30 32 33 34 36 37 38 38
24 23 22 21 21 22 22 22 22 21 21 20 19 19 20 20 20 19 19 19 19 19 20 20 21 22 24 24 22 20 18 16 15 16 16 17 19 21 23 25 26 27 29 30 29 28 28 27 26 25 25 25 24 24 23 23 23 23 24 24 25 25 26 25 24 24 23 24 24 25 26 27 28 28 29 30 31 32 33 34 35 36 37 38 38
24 25 25 26 27 28 28 27 27 26 24 23 22 22 22 22 22 21 20 20 19 19 19 21 22 23 24 26 26 24 22 20 18 18 18 18 19 21 24 27 28 28 30 30 30 29 29 28 27 26 27 27 26 26 26 26 25 24 23 23 24 24 25 25 25 25 24 25 26 27 28 30 30 29 29 30 32 33 35 36 36 37 37 37 37
21 23 24 25 26 27 28 28 28 28 27 27 27 27 26 26 25 24 23 22 22 21 20 21 24 25 26 27 28 27 26 24 21 20 21 21 21 22 24 27 29 29 30 31 30 30 30 29 28 28 28 28 28 27 27 25 23 22 22 22 22 23 24 24 25 25 26 27 28 29 31 31 30 29 30 30 32 33 34 35 36 37 37 36 35
24 25 26 27 27 28 28 29 31 31 32 32 31 31 30 30 29 28 26 25 24 24 24 23 24 25 27 29 30 30 30 28 26 24 24 24 24 24 25 27 30 31 32 32 31 31 31 30 30 30 29 27 25 24 22 21 20 20 21 22 22 23 24 24 24 25 26 28 29 30 31 31 30 30 31 31 32 32 33 34 34 34 34 34 33
27 28 29 30 30 31 31 32 33 34 34 34 34 33 33 33 33 32 31 29 27 27 28 26 25 26 28 30 32 31 31 31 30 28 27 26 25 25 25 27 30 32 32 32 31 31 31 31 31 29 26 24 22 20 19 19 20 20 21 22 23 23 24 24 25 26 27 28 29 30 31 31 30 31 31 31 32 33 33 33 32 32 32 31 30
30 31 32 32 33 34 35 35 36 37 37 38 38 37 36 36 35 35 35 34 32 31 31 30 29 30 30 32 33 32 32 33 32 31 29 28 26 26 27 28 30 31 31 29 28 28 28 29 29 27 25 22 21 21 21 21 22 22 22 22 23 23 24 24 26 27 27 28 28 29 30 30 30 30 31 32 33 33 33 33 32 31 30 30 30
30 32 33 34 36 37 38 39 40 41 42 42 42 42 41 41 40 39 39 38 37 37 36 34 34 34 34 35 35 35 35 36 35 33 33 32 30 29 29 31 33 32 30 27 25 26 27 28 28 26 24 22 22 23 24 24 24 24 23 24 25 24 23 24 25 26 26 27 28 28 28 28 29 30 31 32 32 32 32 32 31 31 30 30 30
28 29 30 32 34 36 38 40 42 43 45 46 46 47 47 47 46 45 43 41 40 39 39 37 36 36 36 37 37 37 37 36 34 34 35 34 32 30 30 32 33 31 29 27 26 26 27 28 26 24 22 22 23 25 26 25 24 23 24 25 25 24 24 25 25 25 25 26 26 26 26 26 28 29 31 32 31 31 31 30 30 30 30 30 30
24 25 26 28 30 32 34 35 37 39 41 43 45 47 48 49 50 50 49 46 43 40 39 38 38 38 38 38 39 39 38 36 36 38 39 35 31 29 30 31 31 28 28 28 28 30 32 30 25 22 21 23 24 25 26 25 24 24 24 24 23 23 25 26 26 26 26 25 24 24 24 25 27 28 29 30 30 30 29 29 28 29 29 29 29
22 23 24 26 27 29 30 31 32 34 35 37 39 41 42 44 47 48 50 49 47 45 43 43 42 42 41 41 41 41 41 40 40 41 41 37 34 32 31 31 31 30 29 28 29 32 35 30 22 21 22 23 24 25 25 25 24 24 25 23 22 22 24 25 26 26 26 25 24 23 24 25 26 27 28 29 28 28 28 27 27 27 27 27 28
21 22 23 25 26 28 29 30 31 32 34 35 36 37 38 40 41 43 44 46 46 45 45 45 45 44 44 44 44 44 44 44 43 43 42 39 37 36 34 33 33 33 33 32 31 31 31 26 22 23 23 23 24 25 25 24 24 25 25 23 22 22 23 23 23 24 24 24 23 23 23 23 25 26 27 26 25 25 25 25 25 25 25 26 26
21 23 24 25 27 28 30 31 32 34 35 36 36 37 38 38 39 39 40 41 43 43 43 43 43 44 44 45 45 44 44 44 44 45 44 43 41 40 39 38 38 37 36 34 31 30 31 29 27 25 23 23 24 24 24 24 24 24 22 21 21 23 23 22 22 22 24 23 22 22 22 22 23 24 24 23 23 23 23 23 23 23 23 23 23
20 22 24 25 27 29 30 31 32 33 34 35 35 35 35 35 36 36 36 38 40 41 41 41 41 40 40 40 42 42 42 42 43 44 44 44 44 44 43 41 40 40 39 38 36 35 34 31 26 22 20 22 24 23 23 22 22 21 19 19 21 23 23 22 22 22 23 24 23 23 22 22 23 22 21 21 21 21 21 21 21 21 21 21 22
19 20 22 23 24 25 25 25 25 26 26 28 29 29 29 30 32 33 34 34 36 38 39 39 39 39 38 37 37 38 38 38 38 38 37 36 38 40 43 44 43 43 43 43 40 36 30 25 21 19 19 22 22 21 20 19 18 18 18 19 21 21 21 22 22 22 24 25 25 24 23 22 21 20 19 19 19 19 19 19 19 20 20 21 22
17 18 19 19 18 17 16 16 16 16 17 19 19 19 20 21 23 26 29 30 32 34 35 34 35 36 36 36 36 36 35 34 33 31 30 28 28 30 35 38 37 35 32 30 27 24 21 19 19 19 20 21 20 17 16 16 17 17 18 20 20 20 20 21 22 22 24 25 24 23 22 21 19 17 17 17 17 16 17 17 18 19 20 20 21
14 14 14 14 14 13 12 11 11 10 11 11 11 12 14 15 17 19 22 24 26 28 29 30 31 32 33 33 33 32 31 30 27 26 26 26 25 25 25 26 25 24 21 19 17 17 18 19 21 21 20 20 19 18 18 18 18 19 20 20 20 20 20 20 21 22 23 24 23 22 21 19 17 16 15 15 14 14 15 15 16 17 19 20 20
10 10 11 11 12 13 13 13 13 12 11 11 11 12 14 15 16 17 19 20 22 25 27 27 27 28 30 31 31 31 30 29 27 26 27 28 28 26 23 22 22 21 21 20 20 19 19 20 22 23 22 22 22 22 21 19 19 20 20 20 21 21 19 18 19 21 22 22 21 20 19 17 15 14 13 12 12 12 13 14 15 16 18 19 19
8 9 10 11 12 13 13 13 12 11 10 10 11 12 14 16 17 17 18 18 21 24 27 28 27 25 24 26 28 29 29 29 27 24 21 20 21 21 20 20 20 20 19 18 18 18 19 20 22 23 24 24 24 22 20 19 19 20 19 20 21 19 17 17 20 21 20 20 19 18 17 14 13 12 11 11 11 11 11 13 14 15 16 17 17
8 9 10 10 11 11 11 11 10 9 9 11 12 14 16 18 18 19 19 19 20 23 26 29 30 28 26 25 26 26 24 23 23 21 16 12 11 14 16 16 17 18 18 18 19 19 19 21 22 24 24 23 22 21 20 20 19 19 19 19 17 15 16 19 20 20 19 18 18 16 14 11 10 10 9 9 10 10 11 12 13 14 14 15 16
8 8 8 9 10 10 9 10 10 11 12 14 15 17 18 19 19 19 18 18 20 22 25 27 29 30 29 28 27 27 26 23 21 21 19 15 13 13 15 15 17 18 19 19 19 19 20 21 23 24 24 23 23 23 22 21 20 19 18 15 13 14 17 20 19 18 17 17 15 13 11 9 8 8 8 8 9 10 11 12 12 13 13 14 15
7 7 7 8 9 10 10 11 12 14 15 16 18 20 20 19 17 15 14 14 15 18 21 24 27 28 29 27 24 24 27 27 25 24 23 20 16 15 17 18 19 18 18 18 17 17 19 21 22 23 25 25 25 24 23 21 19 16 13 13 14 16 18 18 17 17 16 15 13 11 8 7 7 7 7 8 9 10 11 11 11 12 14 15 15
6 7 8 8 10 11 11 12 13 14 15 17 19 21 20 18 15 11 10 11 12 13 15 18 21 24 25 25 22 22 25 27 26 27 27 23 19 18 19 19 18 17 16 16 16 17 18 20 22 24 26 26 26 25 23 19 15 11 12 14 17 18 18 17 15 15 15 13 11 9 7 7 7 7 8 8 9 10 11 11 12 13 14 15 15
7 8 8 9 10 12 11 11 12 14 15 17 19 19 17 17 16 11 7 7 9 9 9 10 12 15 18 21 22 23 24 23 22 23 23 22 20 20 19 18 17 17 15 15 15 16 17 19 21 23 25 26 25 24 20 15 12 12 14 16 17 16 16 15 13 13 12 11 9 7 7 7 7 7 8 8 10 11 11 12 12 14 14 14 13
7 7 8 9 10 11 10 11 12 14 15 17 19 17 14 14 15 13 9 6 7 8 7 7 5 4 8 13 17 20 21 21 22 21 19 18 18 19 18 17 16 15 14 15 15 16 17 18 19 20 21 21 19 15 12 11 12 14 16 15 15 14 13 12 12 12 10 9 8 7 7 7 7 7 7 8 10 11 12 12 13 13 13 13 13
7 7 7 8 8 9 10 11 13 13 14 17 18 16 12 11 14 15 13 10 9 8 7 8 8 6 3 2 7 12 16 19 20 19 16 15 16 16 15 15 15 15 15 15 16 16 16 16 15 13 12 11 9 9 11 14 16 15 14 13 12 12 11 10 10 10 8 7 7 7 6 7 7 7 7 8 9 10 11 12 13 13 13 12 13
7 6 6 6 6 7 10 12 12 11 12 15 17 16 12 10 12 15 17 16 15 13 12 10 9 9 8 8 7 6 6 7 8 10 10 11 11 12 12 12 12 11 11 11 11 10 10 8 7 7 6 7 9 11 14 16 16 13 11 10 10 10 10 9 9 8 7 7 7 7 7 7 7 7 8 8 9 10 11 12 13 13 13 13 13
7 6 6 7 7 9 11 12 11 10 11 13 15 16 14 10 10 12 16 17 18 17 16 14 13 12 11 10 9 8 7 5 3 3 4 4 5 5 6 7 7 8 9 10 9 7 6 5 6 8 9 10 11 13 13 13 12 10 9 9 9 9 9 8 7 6 6 7 7 7 7 7 8 8 9 9 9 10 11 11 12 13 13 13 14
7 7 8 8 9 11 12 12 11 12 12 12 14 15 15 12 9 9 11 13 14 14 14 13 14 15 15 14 13 12 10 7 6 5 5 4 4 5 7 9 10 12 13 13 11 11 10 10 11 11 11 10 9 10 10 9 9 8 7 8 8 8 7 6 5 5 6 6 6 7 7 8 8 9 9 10 10 10 10 11 12 12 13 13 13
7 7 7 8 9 10 11 10 11 12 13 14 14 14 14 13 11 8 8 10 11 11 10 9 9 11 11 12 12 13 13 12 11 9 7 6 7 8 9 10 11 11 11 10 9 10 11 11 10 9 8 7 7 7 7 7 7 7 7 7 7 6 5 4 4 5 5 6 7 7 8 8 9 9 10 10 10 11 11 11 11 12 12 12 13
6 6 6 7 8 9 8 8 9 11 13 14 14 14 13 13 12 10 9 9 11 11 10 8 7 8 8 7 6 7 8 10 11 9 7 6 7 7 7 7 7 6 6 6 5 6 6 7 7 6 6 6 5 5 5 6 6 6 6 5 4 3 3 3 4 5 6 7 8 9 9 10 10 10 10 11 11 11 11 12 12 12 12 12 12
Wind_Direction
218 219 218 219 221 223 221 218 216 214 208 205 204 203 200 191 186 187 196 214 84 71 86 125 149 150 143 138 135 127 117 108 110 113 110 109 105 97 91 96 106 114 127 129 122 122 120 109 114 116 117 126 138 147 157 160 170 188 197 195 199 205 202 212 238 270 310 312 302 337 78 85 266 277 297 144 235 281 294 295 298 291 286 292 300
224 223 221 219 218 219 218 212 210 207 202 203 203 201 204 199 191 204 220 224 217 74 86 124 150 165 168 169 170 168 166 165 184 228 228 229 228 210 195 195 191 182 185 182 166 171 187 189 186 180 169 182 198 199 196 179 170 184 195 194 191 194 205 224 248 272 289 293 298 302 309 296 248 258 271 267 252 260 271 276 277 272 269 267 266
221 224 223 220 214 213 212 208 206 201 198 206 211 214 225 220 201 211 224 222 226 243 187 157 166 179 186 198 202 195 203 221 236 249 251 250 249 246 244 248 255 253 243 236 220 207 212 219 220 210 201 211 225 236 238 222 200 196 200 209 211 210 218 229 245 265 276 280 281 280 280 280 258 253 263 271 271 270 271 269 268 262 254 251 254
215 222 224 222 218 215 213 209 208 204 206 218 223 226 235 226 203 210 220 221 233 247 249 227 204 204 210 216 222 225 237 248 250 248 247 250 260 274 282 283 283 277 267 261 259 257 257 257 251 234 220 219 224 235 241 236 229 222 219 233 241 234 229 229 234 244 256 267 268 269 275 282 284 279 279 283 285 287 288 285 278 265 252 251 259
207 214 215 218 222 223 221 218 220 218 222 231 231 229 229 211 199 214 219 221 236 243 244 241 233 232 234 239 252 260 267 271 263 250 246 249 263 281 285 280 279 276 271 270 268 266 261 256 258 254 241 230 218 221 233 240 247 251 244 242 245 243 240 240 246 256 262 264 264 267 276 284 292 294 291 286 289 299 304 302 299 286 274 273 277
201 201 201 206 211 214 216 217 222 225 226 227 218 212 211 203 204 216 216 219 232 237 237 239 241 247 253 263 273 274 276 278 265 251 252 256 262 269 270 270 269 267 269 274 275 272 265 255 250 245 240 233 219 220 232 243 252 256 244 227 226 231 244 254 263 272 271 269 271 276 283 290 297 299 300 298 300 305 304 301 299 296 294 295 295
190 185 184 186 186 191 199 202 201 198 197 199 193 192 205 213 213 216 219 224 234 242 246 248 252 260 267 273 278 281 281 278 266 258 257 259 264 268 268 267 264 262 266 270 273 273 268 259 243 223 220 223 217 219 228 233 239 242 224 208 218 225 237 248 250 253 263 273 278 278 280 289 296 298 300 303 304 303 299 298 299 298 298 299 302
197 198 190 176 183 206 207 204 207 202 193 199 202 198 204 216 219 222 227 231 240 251 255 257 260 266 270 272 273 274 270 262 262 266 265 264 267 267 265 267 271 273 272 269 269 265 257 250 233 213 206 210 208 210 216 215 221 230 223 217 231 238 241 251 254 255 264 275 279 277 279 287 292 293 296 300 300 298 295 295 296 297 297 298 298
225 241 234 194 200 218 211 208 219 216 200 201 208 205 208 217 222 228 232 234 241 248 251 255 257 258 260 262 261 263 265 262 260 264 269 273 274 269 268 272 277 281 278 269 263 255 245 237 222 210 208 213 212 211 215 213 216 227 233 234 245 255 258 262 268 271 275 278 281 283 285 288 290 292 296 299 299 297 295 293 292 292 294 295 294
242 254 261 227 210 217 215 212 221 220 206 210 219 216 214 216 217 224 233 238 241 244 249 254 255 252 251 252 254 261 268 268 262 262 268 277 281 277 272 273 275 278 277 268 256 243 232 222 214 210 210 214 216 216 217 218 221 230 241 249 258 267 270 272 274 276 279 280 281 284 287 289 291 294 298 298 296 295 294 294 293 293 295 295 294
242 247 247 217 202 212 218 213 210 207 205 217 229 221 211 212 215 222 230 240 245 248 252 256 254 251 248 249 254 260 264 266 265 265 270 275 278 277 275 277 279 275 266 255 244 233 222 212 208 208 209 211 214 217 219 223 232 243 254 262 268 271 271 270 270 272 275 277 278 281 284 288 291 294 296 295 293 293 293 295 296 297 297 297 296
231 239 237 222 209 207 203 197 197 198 200 207 210 206 207 211 215 222 232 240 247 250 252 253 251 249 248 251 256 260 262 265 267 269 272 274 274 272 274 279 280 271 256 241 228 222 215 210 208 209 212 215 218 224 232 242 252 260 267 271 273 270 266 264 265 269 273 276 278 281 285 289 293 294 294 293 293 294 295 297 298 298 299 299 300
211 214 211 208 210 207 197 191 194 200 206 204 197 204 214 213 210 219 232 240 247 252 253 254 252 251 253 257 260 262 264 266 268 269 272 275 276 275 273 270 265 256 246 234 224 221 219 219 219 218 221 225 230 238 248 257 264 270 273 275 274 272 270 270 273 277 281 283 284 285 287 289 291 290 291 291 291 293 294 295 296 296 297 299 300
218 216 212 202 195 191 187 185 189 198 208 209 206 216 222 215 215 226 236 242 249 254 253 252 253 255 258 261 262 261 263 267 271 272 274 277 278 276 270 263 256 250 242 233 229 228 227 227 227 229 233 237 244 253 260 267 273 277 278 277 276 274 274 277 281 285 287 287 286 287 287 289 289 288 289 290 291 292 293 294 295 296 297 297 297
187 190 208 218 213 202 190 180 177 185 199 210 213 214 214 217 226 235 242 247 252 256 254 253 254 255 255 254 255 258 264 270 273 274 275 275 274 269 264 259 254 250 242 235 236 238 236 234 233 239 245 249 252 258 265 270 276 278 278 279 280 279 279 281 284 287 289 289 289 290 291 291 291 291 292 293 294 294 295 296 297 298 298 298 297
171 156 158 172 190 202 215 215 182 175 186 200 207 211 221 235 246 251 253 252 252 255 257 257 257 257 255 254 256 261 268 271 273 274 273 270 266 262 261 261 257 253 249 246 247 249 248 242 239 243 250 254 256 259 264 268 272 274 272 272 274 276 279 282 285 286 287 288 289 289 290 290 291 292 293 293 293 294 294 295 296 298 298 298 298
216 208 197 192 194 193 196 207 202 184 180 191 210 226 241 253 261 264 260 255 257 259 257 255 254 255 257 259 260 262 266 270 274 275 269 264 262 260 263 266 264 260 259 256 256 258 261 258 253 251 253 256 260 264 266 268 271 272 270 268 269 271 275 280 283 285 285 286 286 287 287 288 289 290 292 293 293 293 293 294 296 297 297 298 298
225 226 222 218 218 212 202 200 205 205 195 202 228 246 255 258 258 258 258 259 260 260 256 252 251 253 255 258 260 264 271 276 277 273 264 260 260 261 264 268 267 263 260 259 258 259 262 261 258 256 256 259 262 265 267 269 272 275 275 274 273 273 275 279 282 284 286 287 288 288 288 288 289 290 293 293 293 293 294 295 296 297 297 298 298
224 231 236 233 228 224 216 212 218 224 223 228 239 248 254 257 257 258 259 256 254 253 254 253 252 251 252 257 265 271 276 278 276 272 266 262 262 263 265 268 267 261 257 257 259 259 259 257 255 255 257 259 261 263 265 268 270 274 277 279 280 282 282 282 283 284 286 288 289 290 290 291 293 294 294 294 294 296 296 296 297 298 298 297 298
230 232 236 238 238 238 237 239 249 255 258 259 259 260 262 265 266 265 262 258 254 255 258 260 262 261 258 259 265 270 275 277 273 268 264 262 261 261 263 266 266 261 258 258 258 258 259 259 257 257 259 261 263 265 267 268 270 274 277 280 284 287 289 289 288 287 288 289 290 291 292 292 293 294 295 295 295 296 295 295 296 296 297 297 297
246 241 237 240 246 250 252 255 259 262 262 263 265 266 268 269 268 267 268 268 265 264 266 269 272 272 269 267 268 270 272 273 268 261 258 258 258 257 258 261 263 262 261 260 259 259 259 260 260 261 262 264 266 267 269 270 272 275 279 283 286 290 292 293 292 290 290 291 292 293 292 292 294 295 295 294 294 294 293 294 296 298 298 299 298
250 249 247 247 250 254 257 260 263 264 262 260 259 258 257 259 259 260 264 265 264 267 270 272 273 273 274 276 278 278 276 272 267 263 261 259 257 255 253 254 258 261 262 262 262 262 261 261 262 263 265 268 269 270 271 273 275 278 282 286 289 291 292 293 293 293 294 294 294 294 294 295 296 297 296 295 295 295 296 297 298 299 299 299 299
255 254 254 255 257 259 262 264 265 265 263 261 258 253 251 254 256 258 260 260 260 261 263 266 270 273 274 277 279 279 278 276 272 268 268 265 260 255 250 249 253 259 262 262 263 263 264 265 265 265 266 268 270 273 274 276 278 281 285 288 290 291 293 293 295 296 296 296 295 295 296 299 300 298 296 294 295 296 297 298 299 299 299 299 299
258 258 258 258 260 262 263 263 262 261 259 259 257 254 253 254 256 259 261 261 262 262 258 256 261 266 269 271 273 274 274 274 271 269 268 267 263 259 254 250 250 253 257 259 261 262 263 265 266 267 268 269 271 272 274 275 279 283 287 289 290 291 293 294 295 296 295 295 296 298 300 301 300 296 293 293 294 296 298 298 299 300 300 300 300
254 255 256 256 257 257 258 258 258 256 255 255 255 254 253 253 254 257 258 258 261 263 259 252 252 259 263 264 265 266 267 267 265 264 264 265 264 262 258 253 249 249 250 252 255 258 261 263 265 267 268 268 269 269 271 276 282 287 289 291 293 294 296 297 298 297 297 298 299 301 302 300 297 295 294 295 297 297 298 298 298 298 298 298 298
252 253 255 255 255 255 255 255 254 253 252 252 253 253 254 254 255 256 258 259 259 260 260 257 254 255 257 258 258 260 263 264 263 260 259 260 260 263 263 256 248 244 245 247 250 253 257 260 263 264 263 264 265 268 274 282 289 292 294 295 296 299 301 302 302 301 300 301 301 300 299 297 296 296 296 296 297 297 297 297 296 295 295 295 295
256 255 255 255 255 254 254 253 252 251 251 252 253 254 255 257 258 258 259 261 259 258 260 260 257 255 256 256 255 256 260 262 259 257 258 258 260 265 267 261 251 245 243 244 246 249 253 256 257 257 258 261 266 273 281 290 297 299 299 300 302 304 304 304 303 301 300 298 296 294 294 295 295 295 295 295 296 297 298 298 297 296 295 295 294
264 262 261 259 258 257 256 255 253 252 252 252 253 254 256 257 259 260 260 261 261 259 258 256 255 255 255 255 253 254 257 257 253 254 258 261 263 266 266 264 260 252 242 238 240 244 248 249 249 250 254 262 271 280 287 294 299 301 302 305 308 308 306 303 301 298 296 293 292 292 293 293 293 293 295 297 298 299 299 299 298 298 297 297 296
270 269 266 264 262 261 260 259 257 256 256 255 255 256 257 258 258 258 258 258 258 258 256 254 252 252 252 253 252 252 253 254 254 255 256 256 258 260 264 268 267 254 240 235 236 238 240 241 241 245 253 264 274 283 290 295 300 303 305 308 310 309 306 304 302 298 295 292 291 291 291 291 292 294 297 300 302 302 300 299 299 299 299 299 300
273 273 271 269 268 267 266 265 264 263 261 260 259 259 259 259 259 258 257 255 254 252 252 252 251 251 251 252 254 255 255 256 257 258 259 259 260 261 263 268 268 257 243 238 238 237 233 231 233 243 257 270 279 286 293 299 303 305 306 307 308 308 308 308 307 303 299 295 293 292 292 293 295 297 299 302 303 302 300 300 300 300 301 302 303
277 276 275 274 274 273 272 271 270 268 267 266 264 262 261 260 260 259 258 257 254 252 250 249 249 249 250 251 253 256 258 258 258 259 262 265 268 267 263 265 268 265 258 259 263 252 235 227 235 252 263 272 279 286 296 302 303 302 303 304 307 309 309 309 307 304 300 297 296 295 294 294 295 297 300 301 300 299 299 300 301 303 304 305 305
288 287 285 283 281 279 277 274 272 269 267 266 264 263 262 261 260 260 260 259 257 256 253 251 249 248 248 249 251 253 256 257 258 259 261 264 266 266 264 264 268 268 266 269 271 257 238 238 257 265 264 270 280 287 296 300 299 300 301 303 306 309 309 308 305 302 298 296 296 296 294 293 294 297 299 299 298 298 301 303 305 307 307 306 305
296 296 294 292 288 285 282 278 275 271 268 266 264 263 262 261 260 259 259 259 258 257 256 254 252 250 249 249 250 251 253 255 256 257 259 261 262 263 265 266 268 268 267 267 263 252 248 256 262 259 260 272 281 287 294 297 297 298 299 302 305 309 309 308 305 301 299 298 299 299 297 296 297 299 300 300 301 304 306 307 307 307 306 306 306
301 301 300 297 293 289 285 281 278 275 273 270 268 265 262 261 259 258 256 256 256 256 256 255 255 253 252 250 250 251 253 255 257 258 259 260 261 262 263 264 264 263 263 264 263 261 259 257 251 248 259 273 281 287 293 295 294 294 295 299 303 306 306 305 302 300 300 302 304 303 302 301 302 302 303 304 304 305 306 306 307 308 310 312 312
312 312 312 309 304 298 292 287 283 280 277 274 271 269 266 262 260 258 256 253 253 253 253 253 254 255 254 253 253 254 255 257 259 261 261 261 262 262 259 257 258 259 258 256 254 253 250 246 243 250 264 274 280 287 291 289 288 289 292 295 297 298 299 298 297 298 299 302 304 304 303 303 302 301 301 302 302 302 305 309 314 317 318 318 316
325 328 329 327 322 317 312 306 299 292 287 284 283 282 278 273 267 263 260 257 254 252 251 251 252 253 254 255 255 256 257 260 262 263 261 259 259 257 252 247 246 244 241 238 236 236 240 246 254 263 271 276 281 284 285 284 283 284 287 288 290 291 292 292 294 297 299 300 301 301 300 298 297 297 298 300 301 306 312 318 321 322 322 321 320
337 343 347 348 348 351 355 355 349 338 327 322 320 313 304 294 285 277 270 264 257 253 252 253 253 251 250 252 254 254 256 259 264 265 261 256 254 254 250 243 237 234 235 242 252 260 263 265 268 270 273 276 278 280 281 281 280 280 282 284 285 285 286 289 293 297 297 297 297 297 295 294 295 296 298 301 306 313 319 323 326 327 326 326 325
347 359 11 12 12 13 15 17 15 9 360 350 337 322 312 305 298 288 280 270 260 254 253 256 258 256 250 247 250 253 254 257 263 267 263 253 247 247 250 252 254 258 264 270 274 274 270 266 266 268 269 270 272 274 275 274 274 277 279 280 280 280 283 291 298 298 296 294 293 292 290 291 293 295 298 304 312 319 324 329 333 333 331 330 329
4 22 32 30 25 23 23 22 18 10 359 347 332 319 311 306 300 294 286 276 265 259 256 257 262 264 258 250 251 254 253 251 253 256 252 240 232 237 248 256 261 266 268 267 266 264 259 256 259 264 265 266 269 272 273 272 273 275 276 276 277 280 287 296 300 298 292 289 287 285 284 285 288 294 302 312 318 323 331 338 340 337 334 333 334
29 42 46 41 33 28 24 18 8 356 347 340 331 324 317 309 301 296 290 281 271 263 260 259 261 263 260 254 254 257 255 251 249 250 248 241 235 240 247 252 255 258 259 257 256 256 254 253 259 265 266 266 268 271 272 272 273 274 273 273 276 283 291 296 297 293 287 282 279 277 277 281 289 298 309 316 321 329 340 345 344 339 338 341 343
48 47 39 31 26 20 10 1 355 352 350 344 336 331 325 316 307 298 291 283 272 264 260 258 259 259 258 256 254 255 254 252 250 251 253 252 245 240 244 251 254 256 258 258 255 252 251 253 258 261 262 263 266 268 271 273 274 274 275 275 276 282 288 292 291 286 281 277 274 273 276 286 297 307 315 321 329 340 347 347 345 345 347 351 353
37 26 14 9 7 3 358 356 355 353 350 345 340 337 333 326 317 306 296 289 279 268 262 259 257 257 257 256 255 256 256 252 249 249 251 250 245 243 249 255 256 256 258 259 255 251 248 248 250 252 253 255 260 266 271 275 276 277 280 280 275 276 281 285 282 276 273 271 271 272 281 294 303 312 322 331 342 349 348 346 349 354 356 357 357
2 356 353 352 351 352 356 358 355 350 346 344 344 342 339 335 330 319 306 302 298 286 273 265 259 255 253 250 247 250 257 258 254 250 248 248 250 251 252 255 257 256 255 254 254 252 248 245 245 247 248 251 257 264 269 271 269 267 269 269 268 271 276 278 272 266 265 265 267 273 287 298 306 317 330 340 348 351 349 348 354 1 1 359 357
336 336 340 344 345 349 354 355 350 346 344 346 348 347 343 342 345 343 330 320 319 312 302 287 267 253 248 243 236 236 245 252 251 244 240 239 243 245 247 251 255 255 253 254 255 253 249 246 245 246 248 251 255 259 260 257 255 258 260 262 264 269 272 270 264 258 257 260 266 276 290 297 305 320 333 342 348 350 349 352 358 2 1 356 355
342 339 342 344 343 346 349 346 343 343 346 348 351 350 347 351 1 8 10 359 346 344 347 346 329 272 244 238 230 225 228 236 241 242 238 233 233 236 239 244 247 248 250 251 250 249 249 249 248 248 249 250 251 251 251 251 255 259 259 259 261 263 262 258 255 254 254 259 269 278 287 294 305 320 331 339 346 347 347 352 358 359 356 353 355
2 356 352 347 343 344 345 339 336 339 345 349 354 356 354 359 15 28 36 34 23 19 24 23 21 30 60 187 213 215 218 227 236 239 235 229 228 231 235 238 240 242 244 245 247 250 252 250 246 243 241 239 237 243 251 253 252 252 252 252 254 254 250 247 247 249 253 263 271 278 285 293 302 315 323 331 340 341 342 349 355 354 352 354 360
360 355 349 340 336 341 344 341 340 345 349 352 357 4 6 6 19 35 46 50 46 44 50 50 41 42 58 76 90 116 158 194 216 223 221 220 222 225 229 231 233 235 239 245 250 252 250 246 239 232 229 232 237 242 246 247 246 246 247 246 243 240 239 240 244 250 259 268 273 279 287 293 300 310 317 323 332 334 336 344 348 346 348 357 4
347 341 336 335 338 342 344 347 354 4 5 1 4 11 17 18 20 30 42 49 50 50 55 63 65 62 63 68 75 85 96 111 134 163 179 191 200 207 217 225 229 234 242 250 253 252 251 253 247 240 238 240 239 237 236 238 239 239 237 236 233 233 235 240 247 255 262 268 275 282 290 296 303 309 313 318 324 327 331 338 341 339 344 355 2
334 326 326 334 342 344 345 351 3 12 14 13 14 17 21 27 31 32 33 37 41 44 49 59 69 73 74 77 82 87 92 101 116 125 132 155 191 209 219 227 232 237 242 245 244 242 242 241 238 236 236 235 229 225 225 229 231 230 229 229 231 233 236 242 252 261 269 277 285 291 296 302 306 310 313 317 319 319 324 330 332 333 340 349 353
325 316 320 334 343 344 347 356 7 12 15 19 21 22 24 30 37 41 35 29 31 38 43 45 52 58 63 73 85 93 96 99 104 112 127 154 181 197 207 215 221 227 232 232 228 227 226 221 215 214 217 218 214 213 216 221 223 226 229 228 227 229 236 248 265 279 287 294 298 300 302 304 306 308 312 313 313 315 320 323 323 326 334 339 343
346 339 346 354 354 353 357 6 12 13 16 20 23 25 29 32 36 40 39 33 32 37 40 39 38 35 35 46 72 99 113 113 107 103 114 141 159 169 178 182 184 192 199 194 183 179 180 176 174 181 194 204 205 204 207 211 216 219 221 220 221 230 248 267 282 291 296 300 303 303 304 304 305 306 307 308 310 314 316 316 316 320 326 330 334
Height
3119 3119 3121 3122 3124 3124 3125 3127 3129 3131 3132 3133 3134 3135 3137 3138 3139 3141 3142 3143 3144 3145 3145 3146 3146 3147 3148 3149 3150 3151 3152 3152 3153 3153 3154 3154 3155 3155 3156 3156 3157 3157 3157 3157 3157 3157 3157 3157 3157 3157 3157 3157 3157 3158 3158 3158 3158 3158 3158 3160 3160 3160 3160 3159 3159 3159 3159 3159 3159 3160 3160 3160 3160 3160 3160 3161 3161 3160 3160 3160 3160 3159 3159 3158 3158
3117 3118 3119 3121 3122 3122 3124 3126 3128 3130 3131 3131 3132 3134 3136 3137 3139 3140 3141 3142 3143 3144 3144 3144 3145 3146 3147 3148 3149 3150 3151 3152 3152 3153 3153 3153 3153 3154 3154 3154 3155 3155 3155 3156 3156 3156 3156 3156 3157 3157 3157 3157 3157 3157 3158 3158 3159 3158 3158 3159 3160 3159 3159 3159 3159 3159 3160 3159 3158 3158 3159 3160 3159 3159 3159 3160 3160 3160 3160 3160 3160 3159 3159 3158 3158
3114 3114 3116 3116 3117 3119 3121 3123 3125 3128 3129 3130 3132 3133 3135 3136 3138 3139 3140 3141 3142 3143 3143 3143 3144 3145 3146 3146 3147 3149 3149 3150 3151 3152 3152 3151 3151 3152 3153 3153 3154 3154 3154 3155 3155 3156 3156 3156 3156 3156 3157 3156 3156 3156 3157 3158 3159 3159 3158 3158 3158 3158 3158 3158 3158 3159 3159 3159 3158 3157 3157 3158 3158 3158 3158 3158 3158 3159 3159 3159 3159 3158 3158 3157 3157
3112 3113 3114 3115 3116 3118 3119 3121 3123 3126 3127 3129 3130 3132 3133 3135 3136 3138 3139 3140 3141 3142 3142 3142 3143 3143 3144 3144 3146 3147 3148 3149 3150 3150 3149 3150 3150 3151 3152 3153 3153 3153 3153 3153 3154 3154 3155 3155 3155 3155 3155 3155 3155 3155 3155 3156 3157 3158 3158 3157 3157 3157 3157 3157 3157 3157 3158 3158 3157 3156 3156 3156 3156 3156 3156 3156 3155 3156 3156 3156 3157 3156 3155 3155 3154
3111 3112 3113 3114 3115 3117 3118 3120 3123 3125 3126 3127 3128 3130 3132 3133 3134 3136 3138 3139 3140 3140 3140 3141 3141 3141 3142 3143 3145 3147 3148 3148 3148 3148 3148 3149 3150 3151 3151 3151 3151 3151 3151 3151 3152 3152 3152 3152 3153 3153 3153 3153 3154 3154 3154 3154 3155 3156 3157 3156 3155 3155 3155 3155 3156 3156 3156 3156 3156 3155 3154 3154 3154 3154 3154 3154 3153 3153 3153 3153 3153 3153 3153 3152 3152
3109 3110 3111 3113 3114 3115 3116 3118 3121 3123 3124 3124 3125 3128 3130 3131 3133 3135 3136 3137 3138 3138 3139 3139 3139 3139 3140 3143 3144 3145 3146 3146 3146 3146 3147 3148 3148 3149 3149 3149 3149 3149 3149 3149 3149 3149 3149 3149 3150 3151 3151 3151 3152 3153 3153 3153 3153 3154 3155 3155 3155 3154 3154 3154 3154 3154 3154 3154 3154 3153 3152 3152 3153 3152 3152 3152 3151 3151 3150 3150 3150 3150 3149 3149 3148
3108 3109 3111 3113 3114 3115 3115 3117 3119 3120 3121 3122 3124 3127 3129 3131 3133 3134 3135 3136 3136 3137 3137 3137 3137 3138 3140 3142 3143 3143 3144 3144 3144 3145 3146 3146 3146 3146 3147 3147 3147 3147 3148 3147 3147 3147 3147 3147 3148 3148 3149 3150 3150 3151 3151 3152 3151 3152 3153 3153 3153 3153 3153 3153 3153 3153 3152 3152 3152 3152 3151 3150 3151 3150 3150 3150 3149 3149 3148 3147 3147 3147 3146 3145 3144
3107 3108 3111 3113 3114 3114 3115 3116 3116 3117 3118 3120 3123 3125 3127 3130 3132 3132 3134 3135 3135 3135 3135 3135 3136 3137 3139 3140 3141 3142 3142 3142 3143 3143 3144 3144 3144 3144 3145 3145 3145 3145 3146 3145 3146 3145 3145 3145 3145 3146 3147 3148 3149 3149 3150 3150 3150 3150 3151 3151 3151 3151 3151 3151 3152 3152 3151 3150 3150 3150 3149 3149 3149 3148 3148 3148 3148 3147 3147 3146 3145 3144 3143 3143 3142
3105 3107 3110 3112 3113 3113 3114 3115 3115 3116 3118 3119 3121 3124 3127 3129 3130 3131 3132 3133 3133 3133 3133 3134 3135 3136 3137 3139 3139 3140 3140 3140 3140 3141 3141 3141 3142 3142 3142 3142 3142 3142 3143 3143 3144 3143 3142 3142 3143 3144 3145 3146 3147 3147 3148 3148 3149 3149 3149 3150 3149 3150 3150 3150 3150 3150 3150 3149 3148 3148 3148 3147 3147 3146 3146 3146 3145 3145 3144 3144 3143 3142 3141 3141 3140
3104 3106 3108 3111 3112 3112 3113 3114 3114 3117 3119 3120 3121 3124 3127 3128 3129 3130 3130 3130 3131 3131 3132 3132 3133 3134 3135 3136 3137 3138 3138 3138 3138 3138 3138 3139 3139 3139 3139 3139 3139 3139 3140 3141 3141 3140 3140 3141 3141 3142 3143 3144 3144 3145 3146 3146 3147 3147 3147 3148 3148 3148 3148 3148 3148 3147 3147 3147 3146 3145 3145 3145 3144 3144 3144 3143 3142 3141 3141 3140 3140 3139 3138 3138 3137
3105 3106 3107 3110 3111 3112 3113 3114 3115 3117 3119 3120 3122 3124 3125 3126 3127 3127 3128 3129 3129 3129 3130 3131 3131 3132 3133 3134 3135 3136 3136 3136 3136 3136 3136 3136 3137 3137 3136 3136 3136 3137 3137 3138 3138 3138 3138 3139 3139 3140 3141 3142 3142 3143 3144 3144 3145 3145 3146 3146 3146 3146 3145 3145 3145 3145 3145 3144 3143 3143 3142 3142 3142 3141 3141 3140 3139 3138 3137 3137 3136 3135 3134 3133 3132
3104 3105 3106 3108 3109 3111 3112 3114 3115 3116 3118 3120 3121 3122 3123 3124 3125 3126 3127 3127 3128 3128 3128 3128 3129 3130 3131 3132 3133 3133 3133 3133 3133 3133 3133 3133 3134 3134 3134 3133 3133 3134 3135 3135 3135 3136 3137 3137 3137 3138 3139 3140 3140 3141 3142 3142 3143 3143 3144 3144 3144 3143 3143 3143 3143 3143 3142 3142 3141 3140 3140 3139 3138 3138 3137 3136 3135 3134 3133 3133 3132 3131 3130 3128 3127
3104 3105 3106 3107 3109 3110 3111 3113 3114 3115 3117 3118 3119 3120 3121 3123 3124 3125 3125 3126 3126 3126 3126 3126 3127 3128 3129 3129 3130 3130 3130 3130 3130 3130 3130 3130 3131 3131 3131 3131 3131 3132 3132 3133 3133 3134 3135 3135 3136 3137 3137 3138 3138 3139 3139 3140 3140 3140 3141 3141 3141 3140 3140 3140 3140 3140 3140 3139 3138 3138 3137 3137 3136 3135 3134 3133 3132 3131 3130 3129 3128 3127 3126 3124 3122
3103 3105 3106 3106 3108 3109 3111 3113 3114 3115 3116 3116 3117 3118 3119 3120 3122 3123 3123 3124 3125 3124 3124 3124 3125 3125 3126 3126 3127 3127 3127 3127 3127 3128 3128 3128 3128 3128 3128 3129 3129 3129 3130 3131 3132 3132 3133 3133 3135 3135 3135 3135 3136 3136 3136 3137 3137 3137 3137 3137 3137 3137 3137 3137 3137 3137 3136 3136 3136 3135 3134 3134 3133 3132 3131 3129 3128 3127 3126 3125 3124 3123 3122 3120 3119
3101 3103 3104 3105 3106 3108 3110 3112 3114 3115 3115 3115 3116 3117 3117 3119 3120 3121 3122 3123 3123 3122 3122 3122 3123 3123 3124 3124 3124 3124 3124 3125 3125 3125 3126 3126 3126 3126 3126 3126 3127 3127 3128 3129 3130 3130 3131 3132 3133 3133 3133 3133 3133 3134 3134 3134 3134 3134 3134 3134 3134 3134 3134 3134 3134 3133 3133 3133 3132 3132 3131 3130 3129 3128 3127 3126 3124 3123 3122 3121 3120 3118 3117 3116 3114
3098 3100 3101 3103 3104 3106 3107 3109 3110 3112 3113 3114 3114 3115 3116 3117 3118 3118 3119 3120 3120 3120 3120 3121 3121 3122 3122 3122 3122 3122 3122 3122 3123 3123 3123 3124 3124 3124 3124 3124 3125 3126 3126 3127 3127 3128 3128 3129 3130 3130 3130 3130 3130 3131 3131 3131 3131 3131 3132 3131 3131 3131 3131 3131 3131 3130 3130 3130 3129 3128 3127 3126 3125 3124 3123 3122 3121 3119 3118 3116 3115 3114 3112 3110 3109
3096 3098 3099 3101 3102 3103 3105 3106 3107 3108 3109 3110 3111 3112 3113 3113 3114 3114 3115 3116 3116 3117 3118 3119 3119 3120 3120 3120 3120 3120 3120 3120 3120 3121 3121 3122 3122 3122 3122 3123 3123 3124 3124 3124 3124 3124 3125 3126 3127 3127 3126 3126 3127 3127 3127 3127 3127 3128 3129 3129 3129 3129 3129 3128 3128 3127 3127 3126 3125 3125 3124 3123 3122 3120 3119 3118 3116 3115 3114 3112 3111 3109 3107 3105 3103
3096 3097 3098 3099 3100 3101 3102 3104 3105 3106 3107 3108 3108 3109 3110 3110 3111 3112 3113 3113 3114 3115 3115 3116 3117 3118 3118 3118 3118 3118 3118 3118 3118 3119 3119 3119 3120 3120 3119 3120 3121 3121 3121 3121 3121 3121 3121 3122 3123 3123 3123 3123 3123 3123 3123 3123 3123 3124 3124 3124 3125 3126 3126 3126 3125 3124 3123 3122 3121 3121 3120 3119 3118 3116 3115 3113 3112 3111 3109 3107 3105 3103 3101 3099 3097
3098 3098 3098 3099 3099 3100 3101 3102 3103 3104 3105 3106 3106 3107 3108 3108 3109 3110 3111 3111 3112 3112 3113 3114 3114 3115 3115 3116 3116 3116 3116 3116 3116 3116 3116 3116 3117 3117 3116 3117 3118 3118 3118 3118 3118 3118 3119 3120 3120 3120 3120 3120 3120 3120 3120 3120 3120 3120 3120 3120 3120 3121 3122 3122 3122 3121 3119 3118 3118 3117 3115 3114 3113 3112 3110 3109 3108 3107 3105 3102 3100 3098 3096 3094 3092
3098 3098 3099 3099 3099 3100 3100 3101 3101 3102 3102 3103 3103 3104 3105 3106 3106 3107 3108 3108 3109 3109 3109 3109 3110 3111 3112 3113 3113 3113 3113 3114 3114 3114 3114 3114 3114 3113 3113 3114 3115 3115 3115 3116 3116 3117 3117 3117 3118 3118 3118 3118 3118 3117 3117 3117 3117 3116 3116 3116 3116 3116 3117 3117 3117 3117 3116 3114 3113 3112 3111 3110 3108 3107 3106 3105 3104 3102 3099 3097 3095 3093 3091 3089 3087
3096 3096 3097 3097 3098 3098 3098 3099 3099 3100 3100 3101 3101 3101 3101 3101 3102 3103 3103 3104 3104 3105 3104 3104 3105 3105 3106 3108 3109 3110 3110 3110 3110 3110 3110 3110 3110 3110 3110 3110 3111 3112 3112 3112 3113 3114 3115 3115 3115 3115 3115 3115 3115 3115 3115 3115 3114 3114 3113 3113 3112 3112 3112 3112 3112 3112 3111 3110 3109 3108 3107 3106 3105 3104 3103 3101 3099 3097 3094 3092 3090 3088 3085 3083 3081
3093 3093 3094 3094 3094 3095 3095 3095 3095 3096 3097 3097 3098 3098 3098 3098 3098 3099 3100 3100 3100 3100 3100 3100 3100 3100 3100 3101 3103 3104 3105 3106 3106 3106 3107 3107 3107 3107 3107 3106 3107 3108 3108 3108 3109 3110 3111 3111 3112 3112 3112 3112 3112 3112 3111 3111 3111 3111 3110 3110 3109 3108 3107 3107 3107 3107 3106 3106 3104 3103 3102 3101 3101 3100 3098 3096 3094 3091 3089 3086 3084 3082 3080 3078 3075
3090 3090 3091 3091 3091 3091 3091 3092 3092 3092 3092 3093 3094 3095 3095 3095 3095 3095 3096 3097 3097 3097 3097 3097 3096 3096 3096 3096 3096 3098 3099 3101 3102 3102 3102 3103 3103 3104 3104 3103 3103 3104 3104 3104 3104 3105 3106 3107 3107 3108 3108 3108 3108 3108 3108 3108 3108 3107 3107 3107 3106 3105 3104 3103 3102 3102 3101 3101 3100 3099 3098 3097 3096 3094 3092 3090 3088 3085 3083 3080 3078 3077 3075 3073 3070
3086 3087 3087 3087 3088 3088 3088 3088 3088 3088 3088 3088 3089 3090 3090 3090 3090 3091 3091 3092 3092 3093 3094 3094 3093 3092 3092 3092 3092 3093 3095 3096 3097 3098 3098 3099 3099 3100 3101 3100 3100 3100 3100 3100 3101 3101 3102 3102 3102 3103 3103 3104 3104 3104 3104 3104 3104 3104 3103 3103 3102 3101 3100 3099 3099 3098 3097 3096 3095 3094 3093 3092 3091 3089 3087 3085 3082 3080 3077 3075 3073 3071 3069 3067 3065
3082 3082 3083 3083 3083 3084 3084 3084 3084 3084 3084 3085 3085 3085 3085 3086 3086 3086 3087 3087 3088 3088 3089 3090 3090 3089 3089 3089 3089 3089 3090 3091 3092 3094 3094 3094 3095 3095 3096 3097 3097 3097 3097 3097 3097 3098 3098 3097 3097 3098 3098 3099 3100 3100 3100 3100 3100 3100 3099 3098 3098 3097 3097 3096 3095 3094 3092 3091 3090 3089 3088 3087 3085 3083 3081 3079 3077 3075 3073 3071 3069 3067 3064 3062 3061
3078 3078 3078 3078 3079 3079 3079 3080 3080 3080 3080 3080 3080 3080 3080 3081 3081 3081 3081 3082 3083 3083 3084 3084 3085 3085 3085 3085 3085 3085 3085 3086 3087 3088 3089 3090 3090 3091 3091 3092 3092 3092 3093 3094 3094 3094 3094 3094 3094 3094 3094 3095 3095 3096 3096 3097 3097 3096 3095 3095 3094 3093 3092 3091 3090 3089 3088 3087 3085 3084 3083 3081 3080 3078 3076 3074 3072 3070 3068 3067 3065 3063 3061 3059 3057
3072 3073 3073 3073 3073 3074 3074 3074 3074 3074 3074 3074 3074 3075 3075 3075 3075 3076 3076 3076 3077 3077 3078 3079 3080 3080 3080 3080 3081 3081 3082 3082 3082 3082 3083 3085 3085 3086 3086 3086 3086 3087 3088 3089 3089 3090 3090 3090 3090 3091 3091 3091 3091 3092 3092 3093 3093 3092 3091 3091 3090 3089 3088 3087 3086 3085 3084 3083 3081 3080 3078 3077 3075 3073 3072 3070 3068 3066 3064 3062 3060 3058 3056 3054 3053
3067 3067 3067 3067 3067 3067 3067 3067 3068 3068 3068 3068 3068 3069 3069 3069 3069 3070 3071 3071 3071 3071 3072 3073 3074 3075 3075 3075 3075 3076 3076 3077 3077 3077 3078 3079 3080 3081 3081 3081 3081 3081 3082 3083 3084 3085 3086 3087 3087 3087 3088 3088 3088 3088 3088 3088 3088 3088 3087 3086 3086 3085 3084 3083 3082 3081 3080 3078 3077 3075 3074 3073 3071 3069 3067 3065 3063 3061 3059 3057 3055 3053 3051 3050 3048
3061 3061 3061 3061 3061 3061 3061 3061 3061 3062 3062 3062 3063 3063 3063 3063 3063 3063 3064 3065 3064 3064 3065 3066 3067 3068 3069 3070 3070 3071 3071 3072 3073 3074 3074 3073 3074 3076 3076 3075 3076 3076 3077 3077 3079 3080 3081 3082 3083 3083 3084 3084 3084 3084 3084 3084 3084 3083 3082 3081 3081 3081 3080 3079 3078 3077 3075 3074 3073 3071 3070 3068 3067 3065 3063 3061 3059 3057 3055 3053 3051 3049 3047 3045 3043
3056 3056 3056 3055 3055 3055 3055 3055 3055 3055 3055 3056 3056 3056 3056 3055 3055 3055 3056 3057 3057 3057 3058 3059 3060 3062 3063 3064 3064 3065 3066 3067 3068 3069 3069 3069 3070 3071 3071 3071 3071 3072 3072 3072 3073 3074 3075 3076 3077 3078 3079 3079 3080 3080 3080 3080 3080 3079 3078 3078 3077 3076 3075 3074 3073 3072 3071 3070 3069 3068 3066 3064 3063 3061 3059 3057 3055 3053 3051 3049 3047 3045 3043 3041 3039
3052 3052 3051 3051 3050 3050 3050 3050 3049 3049 3049 3048 3048 3048 3048 3048 3047 3047 3048 3048 3049 3050 3051 3052 3053 3055 3056 3057 3058 3059 3060 3061 3062 3063 3064 3064 3065 3066 3067 3067 3067 3069 3070 3069 3068 3068 3069 3070 3072 3073 3074 3075 3075 3076 3076 3076 3076 3075 3075 3074 3073 3072 3071 3070 3068 3067 3066 3065 3064 3064 3063 3061 3059 3057 3056 3054 3052 3049 3047 3045 3044 3042 3039 3037 3035
3048 3047 3047 3046 3046 3045 3044 3044 3043 3043 3042 3041 3041 3041 3041 3041 3041 3041 3041 3042 3042 3044 3045 3046 3046 3047 3049 3051 3052 3053 3054 3055 3056 3057 3057 3059 3060 3061 3062 3063 3063 3065 3065 3065 3064 3064 3065 3066 3068 3069 3069 3070 3071 3072 3072 3073 3072 3071 3070 3070 3069 3068 3067 3066 3065 3064 3063 3062 3061 3060 3059 3058 3056 3054 3052 3050 3048 3047 3045 3042 3040 3038 3036 3034 3032
3044 3043 3042 3041 3040 3039 3038 3037 3036 3036 3035 3035 3034 3034 3034 3034 3034 3035 3036 3036 3036 3037 3038 3039 3040 3042 3043 3044 3046 3047 3048 3048 3049 3051 3052 3054 3055 3056 3057 3057 3058 3059 3060 3060 3060 3061 3062 3062 3063 3064 3065 3066 3068 3068 3069 3069 3068 3067 3066 3065 3064 3063 3062 3062 3061 3060 3059 3058 3058 3057 3056 3055 3053 3051 3049 3047 3045 3044 3042 3040 3038 3036 3034 3031 3029
3040 3039 3037 3036 3035 3033 3032 3031 3030 3029 3029 3028 3028 3028 3028 3028 3028 3028 3029 3030 3030 3031 3033 3034 3035 3036 3038 3039 3040 3041 3042 3043 3044 3046 3047 3049 3050 3051 3051 3052 3052 3053 3054 3055 3056 3057 3057 3058 3058 3060 3061 3063 3064 3065 3065 3064 3064 3063 3062 3061 3060 3059 3058 3058 3057 3057 3056 3055 3054 3054 3053 3051 3050 3048 3046 3044 3043 3041 3039 3038 3036 3033 3031 3029 3026
3036 3035 3033 3032 3030 3028 3027 3025 3024 3024 3023 3022 3022 3022 3023 3023 3023 3023 3023 3024 3025 3026 3027 3029 3030 3031 3033 3034 3035 3036 3037 3038 3039 3041 3042 3044 3045 3045 3044 3044 3045 3045 3047 3049 3050 3051 3052 3053 3054 3056 3058 3059 3060 3061 3060 3060 3059 3059 3059 3058 3057 3056 3056 3055 3055 3054 3053 3052 3051 3050 3050 3048 3047 3045 3044 3042 3041 3039 3037 3035 3033 3031 3028 3026 3024
3033 3032 3030 3028 3027 3025 3023 3022 3021 3020 3019 3019 3019 3019 3019 3019 3019 3019 3019 3020 3020 3021 3022 3024 3025 3027 3028 3029 3030 3032 3033 3034 3035 3036 3037 3039 3040 3039 3039 3039 3039 3040 3041 3043 3045 3046 3047 3049 3051 3052 3054 3055 3056 3056 3056 3056 3056 3056 3056 3055 3054 3054 3053 3052 3052 3052 3051 3050 3049 3048 3047 3046 3044 3043 3042 3040 3039 3037 3035 3033 3031 3028 3026 3024 3022
3031 3030 3028 3027 3026 3024 3023 3021 3020 3019 3018 3018 3018 3018 3018 3017 3017 3016 3016 3017 3017 3017 3018 3019 3021 3022 3023 3025 3026 3027 3028 3029 3030 3031 3032 3034 3035 3036 3036 3037 3038 3038 3039 3040 3041 3043 3044 3046 3047 3049 3050 3051 3052 3053 3053 3053 3054 3053 3052 3051 3051 3051 3050 3050 3050 3049 3048 3047 3046 3046 3044 3043 3042 3041 3040 3038 3037 3035 3033 3031 3029 3027 3024 3022 3020
3030 3028 3027 3027 3026 3025 3023 3022 3020 3020 3019 3019 3018 3018 3017 3016 3015 3014 3014 3014 3014 3014 3015 3016 3016 3018 3019 3021 3022 3022 3024 3025 3026 3027 3028 3029 3031 3032 3033 3034 3035 3036 3036 3037 3038 3039 3041 3042 3043 3045 3046 3047 3048 3049 3049 3050 3050 3049 3049 3048 3047 3048 3048 3048 3047 3046 3045 3044 3044 3043 3042 3041 3040 3039 3038 3036 3035 3033 3031 3029 3027 3025 3023 3021 3019
3029 3027 3026 3026 3026 3025 3024 3022 3021 3021 3020 3019 3018 3017 3016 3015 3013 3012 3012 3011 3011 3011 3011 3012 3013 3014 3015 3017 3017 3018 3020 3021 3022 3023 3023 3024 3025 3028 3029 3031 3032 3033 3033 3034 3035 3037 3038 3039 3040 3041 3042 3043 3045 3046 3046 3046 3046 3045 3045 3044 3044 3045 3045 3045 3044 3043 3042 3041 3041 3041 3040 3039 3038 3037 3035 3034 3033 3031 3030 3028 3026 3024 3022 3020 3018
3029 3028 3027 3027 3026 3025 3025 3024 3023 3021 3020 3019 3017 3016 3014 3013 3011 3010 3009 3009 3008 3008 3008 3008 3009 3010 3012 3013 3014 3015 3016 3017 3018 3019 3020 3021 3023 3025 3027 3028 3029 3030 3031 3032 3033 3035 3036 3037 3037 3038 3039 3040 3041 3042 3042 3043 3042 3042 3041 3042 3042 3042 3042 3042 3041 3040 3039 3039 3039 3039 3038 3037 3036 3035 3034 3032 3031 3030 3028 3026 3025 3023 3021 3019 3017
3029 3028 3028 3027 3026 3026 3025 3024 3022 3021 3019 3018 3016 3015 3013 3010 3008 3007 3006 3005 3004 3004 3004 3004 3005 3005 3007 3008 3010 3011 3013 3014 3015 3016 3018 3019 3020 3022 3024 3025 3026 3027 3029 3030 3031 3032 3033 3035 3035 3036 3036 3037 3038 3038 3038 3039 3039 3039 3039 3039 3039 3039 3039 3038 3037 3037 3037 3037 3037 3036 3036 3035 3034 3033 3032 3031 3030 3028 3027 3025 3024 3022 3020 3018 3016
3029 3028 3028 3027 3026 3026 3025 3023 3021 3020 3019 3017 3015 3013 3011 3008 3006 3004 3003 3002 3001 3000 3000 3000 3001 3001 3002 3004 3006 3008 3008 3010 3012 3014 3015 3016 3017 3019 3021 3022 3024 3025 3026 3027 3029 3030 3030 3031 3033 3033 3034 3034 3034 3035 3035 3036 3037 3037 3037 3036 3036 3036 3036 3035 3035 3035 3035 3035 3035 3034 3034 3033 3032 3032 3031 3029 3028 3027 3025 3024 3023 3021 3019 3017 3015
3028 3028 3027 3027 3026 3025 3024 3023 3021 3020 3018 3017 3014 3012 3009 3007 3004 3002 3001 3000 2999 2998 2997 2997 2997 2998 2999 3001 3004 3005 3005 3006 3007 3009 3011 3014 3015 3017 3018 3020 3021 3022 3023 3024 3026 3026 3027 3028 3029 3029 3030 3031 3032 3032 3033 3034 3034 3034 3034 3033 3033 3033 3033 3033 3033 3033 3033 3033 3033 3032 3032 3031 3031 3030 3029 3028 3027 3026 3025 3023 3022 3020 3018 3016 3014
3028 3027 3026 3026 3025 3024 3024 3023 3021 3020 3018 3016 3014 3011 3009 3006 3004 3001 3000 2999 2998 2997 2995 2994 2994 2995 2995 2997 3000 3001 3002 3003 3004 3005 3008 3011 3013 3014 3016 3017 3018 3019 3020 3021 3022 3023 3024 3025 3025 3026 3027 3028 3029 3030 3031 3031 3031 3031 3031 3030 3030 3031 3031 3031 3031 3031 3031 3031 3031 3031 3030 3030 3029 3029 3028 3027 3026 3025 3024 3022 3021 3019 3017 3016 3014
3027 3026 3026 3025 3025 3024 3023 3022 3021 3019 3018 3016 3014 3011 3009 3007 3004 3001 2999 2999 2998 2996 2995 2994 2993 2993 2993 2994 2996 2997 2999 3000 3001 3001 3004 3008 3010 3011 3013 3015 3016 3017 3018 3018 3019 3020 3021 3022 3022 3023 3024 3025 3026 3027 3028 3029 3029 3029 3028 3028 3028 3029 3029 3029 3029 3029 3030 3029 3029 3029 3029 3028 3028 3027 3026 3025 3025 3024 3023 3021 3020 3018 3017 3016 3014
3027 3026 3026 3025 3024 3023 3023 3022 3020 3019 3017 3015 3013 3011 3009 3007 3005 3002 3000 2999 2998 2997 2995 2995 2994 2993 2993 2993 2994 2995 2996 2997 2998 3000 3002 3005 3007 3009 3011 3012 3013 3014 3015 3016 3017 3018 3018 3019 3019 3020 3022 3023 3024 3025 3026 3026 3026 3026 3026 3027 3027 3027 3027 3027 3028 3028 3028 3028 3027 3027 3027 3027 3026 3026 3025 3024 3023 3023 3022 3020 3019 3018 3017 3016 3014
3027 3026 3026 3025 3024 3023 3022 3021 3019 3018 3017 3015 3013 3011 3009 3007 3006 3004 3002 3001 2999 2998 2997 2996 2995 2995 2994 2994 2994 2995 2996 2997 2998 2999 3001 3003 3005 3007 3009 3010 3011 3012 3013 3014 3015 3016 3016 3017 3018 3019 3020 3021 3022 3023 3023 3023 3023 3024 3024 3025 3025 3025 3026 3026 3026 3026 3026 3026 3026 3026 3025 3025 3025 3024 3024 3023 3022 3021 3020 3019 3018 3017 3016 3015 3013
3027 3026 3025 3025 3024 3023 3022 3020 3019 3018 3016 3015 3013 3011 3009 3008 3006 3005 3004 3003 3002 3000 2999 2998 2997 2997 2996 2996 2996 2997 2997 2998 2999 3000 3002 3003 3005 3006 3007 3009 3010 3011 3012 3013 3014 3014 3015 3016 3017 3018 3019 3020 3021 3021 3021 3021 3022 3022 3023 3023 3024 3024 3025 3025 3025 3025 3025 3025 3024 3024 3024 3024 3023 3023 3022 3022 3021 3020 3019 3018 3017 3017 3016 3014 3013
3027 3026 3025 3024 3023 3022 3021 3020 3019 3018 3016 3015 3013 3011 3010 3008 3007 3006 3005 3004 3003 3002 3001 3000 3000 2999 2999 2999 2999 2999 2999 3000 3001 3002 3003 3004 3005 3007 3008 3009 3010 3011 3011 3012 3013 3013 3014 3015 3016 3017 3018 3019 3019 3019 3020 3020 3021 3021 3022 3022 3023 3023 3023 3023 3023 3023 3023 3023 3023 3023 3022 3022 3022 3021 3021 3020 3020 3019 3018 3017 3017 3016 3015 3013 3012
3026 3025 3024 3023 3022 3021 3020 3020 3019 3018 3016 3015 3014 3012 3011 3009 3008 3007 3006 3005 3005 3004 3003 3002 3001 3001 3001 3001 3002 3002 3002 3002 3002 3003 3004 3005 3006 3007 3007 3008 3009 3010 3011 3011 3012 3012 3013 3014 3016 3017 3017 3017 3018 3019 3019 3020 3020 3021 3021 3022 3022 3022 3022 3022 3022 3022 3022 3022 3022 3021 3021 3021 3020 3020 3019 3019 3018 3018 3017 3016 3015 3015 3014 3012 3012
3025 3025 3024 3023 3022 3021 3020 3020 3019 3018 3017 3015 3014 3013 3012 3011 3009 3008 3007 3007 3006 3005 3004 3003 3003 3003 3002 3002 3003 3003 3003 3004 3004 3004 3005 3005 3006 3006 3007 3008 3009 3009 3010 3010 3011 3012 3013 3014 3015 3016 3016 3017 3018 3018 3019 3019 3020 3020 3021 3021 3021 3021 3021 3021 3021 3021 3021 3020 3020 3020 3019 3019 3018 3018 3018 3017 3017 3016 3015 3015 3014 3013 3012 3011 3010